WJORDANBC Weather Reports


time (UTC)temp
F
wind
direction
speed
knots
gust
knots
rain 1hr
in
rain 24hr
in
rain mn
in
humidity
%
barometer
mb
20260502183110 67 172 7.0 16.5 0.00 0.00 0.00 17 1016.2
20260502181607 67 177 5.2 15.6 0.00 0.00 0.00 16 1016.4
20260502180109 67 190 7.8 15.6 0.00 0.00 0.00 18 1016.4
20260502163025 63 167 3.5 10.4 0.00 0.00 0.00 30 1017.1
20260502161510 62 184 5.2 9.6 0.00 0.00 0.00 26 1017.2
20260502151614 59 154 3.5 7.0 0.00 0.00 0.00 33 1017.2
20260502150106 57 159 2.6 6.1 0.00 0.00 0.00 36 1017.3
20260502123047 39 267 1.7 5.2 0.00 0.00 0.00 55 1017.0
20260502121553 40 270 1.7 5.2 0.00 0.00 0.00 52 1016.9
20260502114551 40 248 4.3 7.0 0.00 0.00 0.00 52 1016.9
20260502113019 40 263 1.7 5.2 0.00 0.00 0.00 52 1016.8
20260502111547 41 265 0.9 4.3 0.00 0.00 0.00 52 1016.9
20260502110050 39 240 3.5 6.1 0.00 0.00 0.00 54 1017.0
20260502104557 41 240 2.6 5.2 0.00 0.00 0.00 52 1017.0
20260502103058 40 235 3.5 5.2 0.00 0.00 0.00 54 1017.0
20260502101627 42 265 0.0 4.3 0.00 0.00 0.00 52 1016.8
20260502100104 42 250 3.5 5.2 0.00 0.00 0.00 50 1016.7
20260502090115 46 263 3.5 7.0 0.00 0.00 0.00 45 1016.6
20260502070109 42 336 0.0 4.3 0.00 0.00 0.00 51 1017.1
20260502064559 45 348 0.0 6.1 0.00 0.00 0.00 47 1017.0
20260502063056 45 319 1.7 5.2 0.00 0.00 0.00 47 1016.9
20260502061546 48 315 4.3 7.0 0.00 0.00 0.00 42 1016.9
20260502060027 48 312 5.2 7.0 0.00 0.00 0.00 41 1016.8
20260502054522 50 304 5.2 7.0 0.00 0.00 0.00 38 1016.6
20260502053047 50 300 2.6 7.8 0.00 0.00 0.00 38 1016.7
20260502051626 49 290 6.1 7.8 0.00 0.00 0.00 40 1016.7
20260502044612 49 309 4.3 7.0 0.00 0.00 0.00 39 1016.9
20260502043116 50 302 2.6 6.1 0.00 0.00 0.00 38 1016.8
20260502041624 49 294 4.3 6.1 0.00 0.00 0.00 39 1016.6
20260502040008 50 291 4.3 7.0 0.00 0.00 0.00 39 1016.5
20260502034517 50 305 4.3 7.0 0.00 0.00 0.00 38 1016.4
20260502033011 51 301 4.3 7.8 0.00 0.00 0.00 37 1016.1
20260502031617 51 306 4.3 7.0 0.00 0.00 0.00 37 1016.0
20260502030124 51 306 2.6 6.1 0.00 0.00 0.00 38 1015.8
20260502024505 51 294 5.2 7.8 0.00 0.00 0.00 38 1015.6
20260502023003 51 309 5.2 8.7 0.00 0.00 0.00 38 1015.5
20260502021508 53 309 3.5 8.7 0.00 0.00 0.00 36 1015.3
20260502020039 55 297 5.2 7.0 0.00 0.00 0.00 34 1015.3
20260502014519 59 309 5.2 9.6 0.00 0.00 0.00 29 1015.2
20260502013019 60 355 5.2 10.4 0.00 0.00 0.00 28 1015.2
20260502011523 61 9 5.2 9.6 0.00 0.00 0.00 27 1015.2
20260502010045 61 15 5.2 9.6 0.00 0.00 0.00 28 1015.2
20260502004513 61 44 5.2 9.6 0.00 0.00 0.00 27 1015.3
20260502003011 62 5 6.1 13.0 0.00 0.00 0.00 28 1015.2
20260502001520 62 19 6.1 12.2 0.00 0.00 0.00 27 1015.4
20260502000015 62 19 5.2 13.9 0.00 0.00 0.00 26 1015.5
20260501234515 63 37 7.8 13.0 0.00 0.00 0.00 25 1015.5
20260501233022 63 24 7.8 13.9 0.00 0.00 0.00 23 1015.5
20260501231526 64 24 7.0 12.2 0.00 0.00 0.00 24 1015.5
20260501230031 64 33 6.1 10.4 0.00 0.00 0.00 24 1015.6
20260501224526 64 36 5.2 11.3 0.00 0.00 0.00 24 1015.7
20260501223050 64 9 5.2 9.6 0.00 0.00 0.00 23 1015.8
20260501221558 63 21 7.0 12.2 0.00 0.00 0.00 23 1015.9
20260501220139 64 32 3.5 11.3 0.00 0.00 0.00 23 1016.0
20260501214612 63 48 4.3 11.3 0.00 0.00 0.00 23 1016.2
20260501213118 63 56 5.2 9.6 0.00 0.00 0.00 24 1016.2
20260501211501 63 348 2.6 13.0 0.00 0.00 0.00 24 1016.4
20260501210011 63 41 5.2 12.2 0.00 0.00 0.00 26 1016.4
20260501204517 61 346 2.6 8.7 0.00 0.00 0.00 26 1016.5
20260501203043 61 11 0.0 9.6 0.00 0.00 0.00 25 1016.6
20260501201551 61 53 1.7 8.7 0.00 0.00 0.00 25 1016.6
20260501200057 61 360 2.6 13.0 0.00 0.00 0.00 27 1016.8
20260501194602 61 40 4.3 11.3 0.00 0.00 0.00 27 1016.9
20260501193106 60 22 3.5 9.6 0.00 0.00 0.00 29 1017.1
20260501191607 59 22 6.1 11.3 0.00 0.00 0.00 26 1017.3
20260501190119 59 23 0.0 8.7 0.00 0.00 0.00 27 1017.5
20260501184557 60 48 0.9 9.6 0.00 0.00 0.00 25 1017.7